GW0029 Weather Reports


time (UTC)temp
F
wind
direction
speed
knots
gust
knots
rain 1hr
in
rain 24hr
in
rain mn
in
humidity
%
barometer
mb
20260507195504 47 248 0.0 1.7 0.00 0.00 0.00 52 1018.0
20260507195006 47 0 0.0 0.0 0.00 0.00 0.00 51 1018.0
20260507194504 47 225 0.0 2.6 0.00 0.00 0.00 51 1018.0
20260507194005 47 225 0.0 2.6 0.00 0.00 0.00 51 1018.0
20260507193504 47 0 0.0 0.0 0.00 0.00 0.00 51 1018.0
20260507193005 48 0 0.0 0.0 0.00 0.00 0.00 51 1018.0
20260507192505 48 0 0.0 0.0 0.00 0.00 0.00 51 1018.0
20260507192006 48 237 0.0 3.5 0.00 0.00 0.00 50 1018.0
20260507191504 49 222 0.0 3.5 0.00 0.00 0.00 50 1018.0
20260507191006 49 223 0.9 2.6 0.00 0.00 0.00 50 1017.0
20260507190504 49 218 0.9 3.5 0.00 0.00 0.00 49 1017.0
20260507190005 50 203 0.0 3.5 0.00 0.00 0.00 49 1017.0
20260507185504 50 270 0.0 0.9 0.00 0.00 0.00 48 1016.0
20260507185006 51 270 0.0 0.9 0.00 0.00 0.00 48 1016.0
20260507184504 51 0 0.0 0.0 0.00 0.00 0.00 47 1016.0
20260507184005 51 248 0.0 4.3 0.00 0.00 0.00 48 1017.0
20260507183504 51 261 0.0 4.3 0.00 0.00 0.00 48 1017.0
20260507182504 52 253 0.9 4.3 0.00 0.00 0.00 47 1016.0
20260507182006 52 254 0.9 4.3 0.00 0.00 0.00 47 1016.0
20260507181504 53 269 0.0 2.6 0.00 0.00 0.00 47 1016.0
20260507181004 53 273 0.9 5.2 0.00 0.00 0.00 47 1016.0
20260507180505 53 297 1.7 6.1 0.00 0.00 0.00 46 1016.0
20260507175504 53 312 1.7 6.1 0.00 0.00 0.00 46 1016.0
20260507175005 53 317 1.7 6.1 0.00 0.00 0.00 45 1016.0
20260507174505 54 309 0.9 3.5 0.00 0.00 0.00 45 1016.0
20260507173005 54 312 3.5 9.6 0.00 0.00 0.00 44 1015.0
20260507172504 55 310 3.5 9.6 0.00 0.00 0.00 43 1016.0
20260507172005 55 291 1.7 8.7 0.00 0.00 0.00 42 1016.0
20260507171505 55 305 3.5 13.0 0.00 0.00 0.00 43 1016.0
20260507171005 55 312 6.1 13.0 0.00 0.00 0.00 42 1016.0
20260507170504 55 302 4.3 10.4 0.00 0.00 0.00 42 1016.0
20260507170006 55 302 4.3 11.3 0.00 0.00 0.00 41 1016.0
20260507165005 55 316 7.0 11.3 0.00 0.00 0.00 40 1016.0
20260507164504 55 318 7.0 11.3 0.00 0.00 0.00 41 1016.0
20260507164004 56 318 7.0 12.2 0.00 0.00 0.00 40 1017.0
20260507163505 56 315 7.0 12.2 0.00 0.00 0.00 41 1017.0
20260507163004 56 305 4.3 12.2 0.00 0.00 0.00 41 1017.0
20260507162504 56 270 3.5 8.7 0.00 0.00 0.00 43 1016.0
20260507162006 56 283 4.3 9.6 0.00 0.00 0.00 42 1016.0
20260507161504 56 298 4.3 9.6 0.00 0.00 0.00 42 1016.0
20260507160005 57 309 7.0 12.2 0.00 0.00 0.00 43 1016.0
20260507155505 57 315 7.0 13.0 0.00 0.00 0.00 43 1017.0
20260507155004 57 322 6.1 13.0 0.00 0.00 0.00 45 1017.0
20260507154505 57 313 6.1 11.3 0.00 0.00 0.00 44 1017.0
20260507154005 57 304 6.1 11.3 0.00 0.00 0.00 45 1016.0
20260507153504 57 300 6.1 11.3 0.00 0.00 0.00 43 1016.0
20260507153005 57 278 5.2 8.7 0.00 0.00 0.00 44 1016.0
20260507152504 57 266 5.2 9.6 0.00 0.00 0.00 45 1016.0
20260507151505 57 306 7.0 13.0 0.00 0.00 0.00 46 1016.0
20260507151004 57 303 6.1 13.0 0.00 0.00 0.00 44 1017.0
20260507150505 57 292 5.2 9.6 0.00 0.00 0.00 45 1017.0
20260507150006 57 283 5.2 10.4 0.00 0.00 0.00 46 1017.0
20260507145504 57 291 7.0 13.9 0.00 0.00 0.00 45 1016.0
20260507145005 57 298 6.1 13.9 0.00 0.00 0.00 46 1016.0
20260507144504 57 285 5.2 7.0 0.00 0.00 0.00 45 1016.0
20260507143004 57 302 6.1 12.2 0.00 0.00 0.00 47 1016.0
20260507142505 57 303 7.0 13.0 0.00 0.00 0.00 46 1017.0
20260507142005 57 309 6.1 13.0 0.00 0.00 0.00 46 1017.0
20260507141505 57 312 6.1 11.3 0.00 0.00 0.00 45 1017.0
20260507140505 57 311 7.8 13.0 0.00 0.00 0.00 46 1016.0
20260507140005 57 306 7.0 13.0 0.00 0.00 0.00 45 1016.0
20260507135006 58 309 7.0 12.2 0.00 0.00 0.00 45 1016.0
20260507134504 58 307 6.1 12.2 0.00 0.00 0.00 45 1016.0
20260507134006 58 298 4.3 11.3 0.00 0.00 0.00 44 1016.0
20260507133504 58 292 4.3 7.8 0.00 0.00 0.00 46 1016.0
20260507133005 57 303 5.2 9.6 0.00 0.00 0.00 45 1016.0
20260507132504 58 302 6.1 13.0 0.00 0.00 0.00 44 1016.0
20260507132005 57 298 6.1 13.9 0.00 0.00 0.00 45 1016.0
20260507131505 58 303 5.2 13.9 0.00 0.00 0.00 45 1016.0
20260507131004 58 303 5.2 10.4 0.00 0.00 0.00 45 1016.0
20260507130505 58 296 5.2 10.4 0.00 0.00 0.00 45 1016.0
20260507130005 58 282 4.3 9.6 0.00 0.00 0.00 46 1016.0
20260507125005 58 276 2.6 7.0 0.00 0.00 0.00 48 1016.0
20260507124505 58 277 3.5 8.7 0.00 0.00 0.00 49 1016.0
20260507124004 58 275 2.6 8.7 0.00 0.00 0.00 50 1016.0
20260507123005 58 260 3.5 7.0 0.00 0.00 0.00 51 1016.0
20260507122504 57 245 3.5 8.7 0.00 0.00 0.00 51 1016.0
20260507122005 57 250 4.3 8.7 0.00 0.00 0.00 50 1016.0
20260507121504 57 264 4.3 10.4 0.00 0.00 0.00 50 1016.0
20260507120504 57 271 4.3 10.4 0.00 0.00 0.00 50 1016.0
20260507115504 57 247 4.3 8.7 0.00 0.00 0.00 50 1015.0
20260507115006 57 253 4.3 9.6 0.00 0.00 0.00 50 1015.0
20260507114504 57 252 3.5 9.6 0.00 0.00 0.00 50 1015.0
20260507114004 57 254 3.5 7.8 0.00 0.00 0.00 51 1016.0
20260507113504 57 261 4.3 13.0 0.00 0.00 0.00 51 1016.0
20260507112004 57 244 4.3 8.7 0.00 0.00 0.00 51 1015.0
20260507111006 57 251 3.5 7.0 0.00 0.00 0.00 51 1015.0
20260507110004 56 252 4.3 9.6 0.00 0.00 0.00 49 1015.0
20260507105505 56 262 3.5 9.6 0.00 0.00 0.00 51 1016.0
20260507105004 57 261 3.5 8.7 0.00 0.00 0.00 50 1016.0
20260507104504 57 254 4.3 11.3 0.00 0.00 0.00 51 1016.0
20260507104005 57 254 4.3 11.3 0.00 0.00 0.00 50 1015.0
20260507103504 57 244 4.3 7.0 0.00 0.00 0.00 51 1015.0
20260507103005 57 267 4.3 8.7 0.00 0.00 0.00 52 1015.0
20260507102505 57 262 4.3 8.7 0.00 0.00 0.00 51 1015.0
20260507101506 57 237 4.3 7.8 0.00 0.00 0.00 51 1015.0
20260507101005 57 244 3.5 7.0 0.00 0.00 0.00 52 1015.0
20260507100505 57 239 3.5 5.2 0.00 0.00 0.00 52 1015.0
20260507100005 57 243 3.5 6.1 0.00 0.00 0.00 53 1015.0
20260507095504 56 253 4.3 10.4 0.00 0.00 0.00 52 1015.0
20260507095005 57 257 3.5 10.4 0.00 0.00 0.00 49 1015.0
20260507094505 57 246 2.6 6.1 0.00 0.00 0.00 51 1015.0
20260507094005 57 247 2.6 6.1 0.00 0.00 0.00 51 1015.0
20260507093504 57 260 3.5 9.6 0.00 0.00 0.00 52 1015.0
20260507093006 57 261 3.5 9.6 0.00 0.00 0.00 51 1015.0
20260507092504 56 246 1.7 6.1 0.00 0.00 0.00 50 1015.0
20260507092006 56 276 3.5 6.1 0.00 0.00 0.00 51 1015.0
20260507091505 56 274 3.5 7.0 0.00 0.00 0.00 48 1015.0
20260507090505 56 237 3.5 7.0 0.00 0.00 0.00 49 1015.0
20260507085504 56 243 3.5 12.2 0.00 0.00 0.00 50 1015.0
20260507085006 56 236 3.5 7.0 0.00 0.00 0.00 50 1015.0
20260507084505 55 240 2.6 5.2 0.00 0.00 0.00 50 1015.0
20260507084005 55 247 3.5 5.2 0.00 0.00 0.00 50 1014.0
20260507082505 55 246 3.5 7.0 0.00 0.00 0.00 50 1014.0
20260507082006 54 286 3.5 7.0 0.00 0.00 0.00 51 1014.0
20260507081504 54 282 3.5 6.1 0.00 0.00 0.00 48 1014.0
20260507080505 54 311 5.2 9.6 0.00 0.00 0.00 52 1014.0
20260507080006 53 320 6.1 9.6 0.00 0.00 0.00 49 1014.0
20260507075504 53 304 5.2 8.7 0.00 0.00 0.00 51 1014.0
20260507075005 53 275 3.5 7.8 0.00 0.00 0.00 54 1014.0
20260507074504 53 277 1.7 5.2 0.00 0.00 0.00 56 1014.0
20260507074005 53 295 1.7 7.8 0.00 0.00 0.00 55 1014.0
20260507073504 52 306 2.6 8.7 0.00 0.00 0.00 56 1014.0
20260507073005 52 314 3.5 8.7 0.00 0.00 0.00 56 1014.0
20260507072505 52 315 3.5 8.7 0.00 0.00 0.00 56 1014.0
20260507072004 52 293 2.6 7.8 0.00 0.00 0.00 56 1014.0
20260507071005 51 301 0.9 4.3 0.00 0.00 0.00 55 1014.0
20260507070009 51 331 4.3 7.8 0.00 0.00 0.00 55 1014.0
20260507065005 50 322 2.6 6.1 0.00 0.00 0.00 56 1013.0
20260507064504 50 329 2.6 4.3 0.00 0.00 0.00 57 1013.0
20260507064004 50 338 1.7 4.3 0.00 0.00 0.00 57 1013.0
20260507063505 50 76 0.9 6.1 0.00 0.00 0.00 59 1013.0
20260507063006 50 82 0.9 6.1 0.00 0.00 0.00 58 1013.0
20260507062504 50 97 0.0 3.5 0.00 0.00 0.00 60 1013.0
20260507061504 49 80 0.9 4.3 0.00 0.00 0.00 61 1013.0
20260507061005 48 71 0.9 4.3 0.00 0.00 0.00 65 1013.0
20260507060504 48 79 2.6 4.3 0.00 0.00 0.00 66 1013.0
20260507060005 46 87 3.5 5.2 0.00 0.00 0.00 68 1013.0
20260507055504 45 95 4.3 6.1 0.00 0.00 0.00 70 1014.0
20260507054004 43 94 4.3 6.1 0.00 0.00 0.00 73 1014.0
20260507053505 42 93 4.3 6.1 0.00 0.00 0.00 75 1014.0
20260507052005 41 93 4.3 6.1 0.00 0.00 0.00 77 1014.0
20260507051504 40 88 3.5 6.1 0.00 0.00 0.00 78 1014.0
20260507050504 40 95 5.2 7.8 0.00 0.00 0.00 79 1014.0
20260507050006 40 95 5.2 7.8 0.00 0.00 0.00 79 1014.0
20260507045005 40 101 5.2 7.0 0.00 0.00 0.00 82 1014.0
20260507044004 39 107 5.2 7.8 0.00 0.00 0.00 83 1014.0
20260507042504 38 87 0.9 4.3 0.00 0.00 0.00 80 1014.0
20260507042004 38 0 0.0 0.0 0.00 0.00 0.00 79 1014.0
20260507041505 38 0 0.0 0.0 0.00 0.00 0.00 79 1014.0
20260507041006 38 0 0.0 0.0 0.00 0.00 0.00 80 1014.0
20260507040504 38 0 0.0 0.0 0.00 0.00 0.00 80 1014.0
20260507040005 37 0 0.0 0.0 0.00 0.00 0.00 80 1014.0
20260507035504 37 0 0.0 0.0 0.00 0.00 0.00 80 1014.0
20260507035006 36 0 0.0 0.0 0.00 0.00 0.00 80 1014.0
20260507034004 36 0 0.0 0.0 0.00 0.00 0.00 79 1013.0
20260507033505 36 0 0.0 0.0 0.00 0.00 0.00 79 1013.0
20260507033005 36 0 0.0 0.0 0.00 0.00 0.00 79 1013.0
20260507032504 36 0 0.0 0.0 0.00 0.00 0.00 79 1013.0
20260507032005 36 0 0.0 0.0 0.00 0.00 0.00 79 1013.0
20260507031504 36 0 0.0 0.0 0.00 0.00 0.00 79 1013.0
20260507031006 36 0 0.0 0.0 0.00 0.00 0.00 79 1012.0
20260507030504 36 0 0.0 0.0 0.00 0.00 0.00 79 1012.0
20260507030004 36 0 0.0 0.0 0.00 0.00 0.00 79 1012.0
20260507025006 36 0 0.0 0.0 0.00 0.00 0.00 79 1012.0
20260507024504 36 0 0.0 0.0 0.00 0.00 0.00 78 1012.0
20260507024005 36 0 0.0 0.0 0.00 0.00 0.00 78 1012.0
20260507023504 36 0 0.0 0.0 0.00 0.00 0.00 77 1012.0
20260507023005 36 0 0.0 0.0 0.00 0.00 0.00 76 1012.0
20260507022505 36 0 0.0 0.0 0.00 0.00 0.00 76 1012.0
20260507022005 36 0 0.0 0.0 0.00 0.00 0.00 76 1012.0
20260507021005 37 0 0.0 0.0 0.00 0.00 0.00 76 1012.0
20260507020504 37 0 0.0 0.0 0.00 0.00 0.00 76 1012.0
20260507020005 36 0 0.0 0.0 0.00 0.00 0.00 76 1012.0
20260507015504 36 0 0.0 0.0 0.00 0.00 0.00 75 1012.0
20260507015004 36 0 0.0 0.0 0.00 0.00 0.00 75 1012.0
20260507014505 37 0 0.0 0.0 0.00 0.00 0.00 75 1012.0
20260507014004 37 0 0.0 0.0 0.00 0.00 0.00 74 1012.0
20260507013505 37 0 0.0 0.0 0.00 0.00 0.00 74 1012.0
20260507013004 37 0 0.0 0.0 0.00 0.00 0.00 73 1012.0
20260507012505 37 0 0.0 0.0 0.00 0.00 0.00 73 1012.0
20260507012005 37 0 0.0 0.0 0.00 0.00 0.00 73 1012.0
20260507011504 37 0 0.0 0.0 0.00 0.00 0.00 73 1012.0
20260507010506 37 0 0.0 0.0 0.00 0.00 0.00 73 1011.0
20260507010005 37 0 0.0 0.0 0.00 0.00 0.00 72 1011.0
20260507005505 38 0 0.0 0.0 0.00 0.00 0.00 71 1012.0
20260507005004 38 0 0.0 0.0 0.00 0.00 0.00 71 1012.0
20260507004504 38 0 0.0 0.0 0.00 0.00 0.00 71 1012.0
20260507004006 38 0 0.0 0.0 0.00 0.00 0.00 72 1011.0
20260507003504 38 0 0.0 0.0 0.00 0.00 0.00 72 1011.0
20260507003004 39 112 0.0 2.6 0.00 0.00 0.00 71 1011.0
20260507002505 39 104 1.7 4.3 0.00 0.00 0.00 71 1012.0
20260507001504 39 112 0.0 3.5 0.00 0.00 0.00 70 1012.0
20260507001004 39 0 0.0 0.0 0.00 0.00 0.00 69 1012.0
20260507000505 39 0 0.0 0.0 0.00 0.00 0.00 69 1012.0
20260507000006 39 0 0.0 0.0 0.00 0.00 0.00 68 1012.0
20260506235504 39 0 0.0 0.0 0.00 0.00 0.00 67 1013.0
20260506235004 40 0 0.0 0.0 0.00 0.00 0.00 67 1013.0
20260506234505 40 107 0.9 3.5 0.00 0.00 0.00 67 1013.0
20260506234005 40 110 1.7 4.3 0.00 0.00 0.00 66 1012.0
20260506233006 41 94 0.9 3.5 0.00 0.00 0.00 65 1012.0
20260506232504 42 0 0.0 0.0 0.00 0.00 0.00 67 1013.0
20260506232005 42 0 0.0 0.0 0.00 0.00 0.00 66 1013.0
20260506231504 42 0 0.0 0.0 0.00 0.00 0.00 67 1013.0
20260506231005 42 0 0.0 0.0 0.00 0.00 0.00 67 1012.0
20260506230504 42 0 0.0 0.0 0.00 0.00 0.00 68 1012.0
20260506230005 42 0 0.0 0.0 0.00 0.00 0.00 67 1012.0
20260506225006 42 0 0.0 0.0 0.00 0.00 0.00 66 1012.0
20260506224504 42 0 0.0 0.0 0.00 0.00 0.00 65 1012.0
20260506224004 42 0 0.0 0.0 0.00 0.00 0.00 65 1012.0
20260506223504 42 0 0.0 0.0 0.00 0.00 0.00 64 1012.0
20260506223004 42 0 0.0 0.0 0.00 0.00 0.00 63 1012.0
20260506222005 42 0 0.0 0.0 0.00 0.00 0.00 60 1012.0
20260506221504 42 0 0.0 0.0 0.00 0.00 0.00 59 1012.0
20260506221004 42 0 0.0 0.0 0.00 0.00 0.00 59 1012.0
20260506220505 43 0 0.0 0.0 0.00 0.00 0.00 58 1012.0
20260506220005 43 0 0.0 0.0 0.00 0.00 0.00 57 1012.0
20260506215505 44 0 0.0 0.0 0.00 0.00 0.00 56 1012.0
20260506215005 44 198 0.0 4.3 0.00 0.00 0.00 55 1012.0
20260506214505 44 195 0.9 4.3 0.00 0.00 0.00 55 1012.0
20260506214004 44 195 0.0 1.7 0.00 0.00 0.00 53 1011.0
20260506213506 44 200 0.0 1.7 0.00 0.00 0.00 52 1011.0
20260506213005 44 198 0.9 2.6 0.00 0.00 0.00 52 1011.0
20260506212504 44 197 0.9 2.6 0.00 0.00 0.00 51 1011.0
20260506212006 45 0 0.0 0.0 0.00 0.00 0.00 50 1011.0
20260506211506 45 0 0.0 0.0 0.00 0.00 0.00 49 1011.0
20260506211004 45 162 0.0 2.6 0.00 0.00 0.00 47 1011.0
20260506210505 45 170 0.0 2.6 0.00 0.00 0.00 46 1011.0
20260506210004 45 203 0.0 0.9 0.00 0.00 0.00 45 1011.0
20260506205505 45 0 0.0 0.0 0.00 0.00 0.00 45 1011.0
20260506205005 45 0 0.0 0.0 0.00 0.00 0.00 45 1011.0
20260506204006 46 0 0.0 0.0 0.00 0.00 0.00 44 1011.0
20260506203005 46 0 0.0 0.0 0.00 0.00 0.00 43 1011.0
20260506202505 46 0 0.0 0.0 0.00 0.00 0.00 43 1011.0
20260506202005 47 0 0.0 0.0 0.00 0.00 0.00 43 1011.0
20260506201504 47 0 0.0 0.0 0.00 0.00 0.00 43 1011.0
20260506201005 47 0 0.0 0.0 0.00 0.00 0.00 43 1011.0
20260506200505 47 225 0.0 1.7 0.00 0.00 0.00 42 1011.0